Flag for U.S.A. Weather past 2 weeks in Leawood, Kansas, U.S.A.

Now
39 °F

Fog.


Feels Like: 31 °F
Forecast: 28 / 46 °F
Wind: 15 mph from Southwest

Location: Johnson County Executive Airport

Current Time: Mar 3, 2015 at 9:56:56 AM

Latest Report: Mar 3, 2015 at 8:58 AM


Visibility: 4 mi

Pressure: 29.72 "Hg

Humidity: 100%

Dew point: 39 °F

Location of LeawoodLocation

Historic Weather in Leawood — Graph

°F

Leawood temperature yesterday

Maximum temperature yesterday: 37 °F (at 1:53 PM)
Minimum temperature yesterday: 19 °F (at 3:53 AM)
Average temperature yesterday: 30 °F

Past Weeks' High & Low Weather Summary

 TemperatureHumidityPressure
High52 °F (Feb 25, 1:53 PM)100% (Feb 20, 9:53 PM)30.80 "Hg (Feb 20, 9:53 PM)
Low4 °F (Feb 27, 4:53 AM)24% (Feb 23, 3:53 PM)29.72 "Hg (Mar 3, 8:58 AM)
Average23 °F67%30.28 "Hg
* Reported Feb 16 8:53 AM — Mar 3 8:58 AM, Leawood, Weather by CustomWeather, © 2015

Note: Actual official high and low records may vary slightly from our data, if they occured in-between our weather recording intervals... More about our weather records

Advertising

Leawood weather history for previous 24 hours

 ConditionsComfort  
Time TempWeatherWind HumidityBarometerVisibility
8:58 AM
Tue, Mar 3
39 °FFog.15 mph100%29.72 "Hg4 mi
7:53 AM38 °FFog.18 mph100%29.73 "Hg2 mi
6:53 AM37 °FFog.13 mph100%29.76 "Hg2 mi
5:53 AM36 °FFog.17 mph97%29.74 "Hg1 mi
4:53 AM35 °FFog.9 mph100%29.79 "Hg3 mi
3:53 AM34 °FFog.13 mph100%29.81 "Hg2 mi
3:02 AM33 °FFog.14 mph96%29.84 "Hg2 mi
2:53 AM33 °FFog.14 mph96%29.88 "Hg2 mi
1:53 AM32 °FIce fog.14 mph100%29.92 "Hg2 mi
12:53 AM33 °FFog.14 mph88%29.96 "Hg4 mi
11:53 PM
Mon, Mar 2
33 °FOvercast.14 mph82%29.99 "Hg9 mi
10:53 PM33 °FOvercast.14 mph78%30.03 "Hg10 mi
9:53 PM33 °FOvercast.14 mph63%30.06 "Hg10 mi
8:53 PM33 °FOvercast.7 mph61%30.12 "Hg10 mi
7:53 PM33 °FOvercast.7 mph63%30.16 "Hg10 mi
6:53 PM33 °FOvercast.8 mph61%30.19 "Hg10 mi
5:53 PM33 °FOvercast.8 mph58%30.21 "Hg10 mi
4:53 PM34 °FPartly sunny.12 mph56%30.24 "Hg10 mi
3:53 PM35 °FSunny.10 mph54%30.30 "Hg10 mi
2:53 PM36 °FSunny.13 mph52%30.32 "Hg10 mi
1:53 PM37 °FSunny.15 mph50%30.35 "Hg10 mi
12:53 PM35 °FSunny.15 mph48%30.40 "Hg10 mi
11:53 AM36 °FSunny.13 mph54%30.44 "Hg10 mi
10:53 AM34 °FSunny.10 mph61%30.49 "Hg10 mi
9:53 AM31 °FSunny.9 mph76%30.50 "Hg8 mi
Weather by CustomWeather, © 2015

See weather overviewHow to use our weather pages